Other Public Products
Issued by NWS Grand Forks, ND

Home | Current Version | Previous Version | Text Only | Print | Product List | Glossary On
Versions: 1 2 3 4 5 6 7 8 9 10 11 12 13 14 15 16 17 18 19 20 21 22 23 24 25 26 27 28 29 30 31 32 33 34 35 36 37 38 39 40 41 42 43 44 45 46 47 48 49 50
000
FPUS83 KFGF 230610
OPUFGF
PRAIRIE TO PINES WEATHER ROUNDUP
NATIONAL WEATHER SERVICE EASTERN NORTH DAKOTA/GRAND FORKS ND
100 AM CDT SAT SEP 23 2017

 **SATELLITE DATA USED TO AUGMENT SKY COVER AT AUTOMATED STATIONS**
 *****  WEATHER ACROSS EASTERN NORTH DAKOTA  *****

CITY           SKY/WX    TMP DP  RH WIND       PRES   REMARKS
GRAND FORKS    CLOUDY    54  51  90 N14G26    29.82R
6HR MIN TEMP:  54; 6HR MAX TEMP:  65;

GRAND FORKS AF CLOUDY    53  50  90 N18G28    29.81R
GRAND CITY NWS NOT AVBL
BUXTON         NOT AVBL
DEVILS LAKE    CLOUDY    50  46  86 N17G24    29.91R
6HR MIN TEMP:  50; 6HR MAX TEMP:  52; 6HR PCP: TRACE;

FARGO          CLOUDY    57  53  86 NW14      29.83R
6HR MIN TEMP:  57; 6HR MAX TEMP:  87;

WAHPETON ARPT  MOCLDY    57  52  82 W10       29.88R
$$

 *****  WEATHER ACROSS CENTRAL AND WESTERN NORTH DAKOTA  *****

CITY           SKY/WX    TMP DP  RH WIND       PRES   REMARKS
JAMESTOWN      CLOUDY    51  48  89 NW12      29.91R
6HR MIN TEMP:  51; 6HR MAX TEMP:  59;

BISMARCK       CLOUDY    50  44  80 NW6       30.05R
6HR MIN TEMP:  49; 6HR MAX TEMP:  50;

MINOT          MOCLDY    48  45  89 NW12      29.99F
6HR MIN TEMP:  48; 6HR MAX TEMP:  50;

MINOT AFB      CLOUDY    47  45  93 N9        29.98F
6HR MIN TEMP:  47; 6HR MAX TEMP:  49;

GARRISON         N/A     47  44  90 N12       29.99R
6HR MIN TEMP:  47; 6HR MAX TEMP:  48;

WILLISTON      CLOUDY    45  42  89 NW10      30.07R
6HR MIN TEMP:  44; 6HR MAX TEMP:  47;

DICKINSON      NOT AVBL
HETTINGER      LGT RAIN  44  41  89 NE9       30.03R
6HR MIN TEMP:  43; 6HR MAX TEMP:  48; 6HR PCP: TRACE;

$$

 *****  OTHER OBSERVATIONS NORTHEAST NORTH DAKOTA  *****

CITY           SKY/WX    TMP DP  RH WIND       PRES   REMARKS
WALHALLA       FAIR     N/A N/A N/A NW17G24   29.87F
LANGDON        CLOUDY    48  48 100 N17G23    29.89R
CAVALIER       CLOUDY    50  46  87 N20G26    29.84S
GRAFTON        CLOUDY    50  50 100 NW17G24   29.85R
CANDO          CLOUDY    48  48 100 N15G22    29.95R
FORT TOTTEN      N/A     50  47  90 N7        29.95S
ROLLA          CLOUDY    45  45 100 N22G28    29.97R
RUGBY          CLOUDY    48  48 100 NW10      29.98R
 ***** THE ABOVE OBSERVATIONS ARE NON NWS ARE NOT QUALITY
        CONTROLLED AND MAY MIS-REPORT RAIN FOR SNOW...
$$

 *****  OTHER OBSERVATIONS SOUTHEAST NORTH DAKOTA *****

CITY           SKY/WX    TMP DP  RH WIND       PRES   REMARKS
COOPERSTOWN    CLOUDY    52  50  93 NW13G21   29.87R
VALLEY CITY    CLOUDY    54  54 100 NW14      29.89R
OAKES          NOT AVBL
GWINNER        CLOUDY    55  54  94 NW9       29.86S
SHEYENNE NWR     N/A     57  53  87 NW7       29.95S
BUFFALO        NOT AVBL
WYNDMERE       NOT AVBL
 ***** THE ABOVE OBSERVATIONS ARE NON NWS ARE NOT QUALITY
       CONTROLLED AND MAY MIS-REPORT RAIN FOR SNOW...
$$

  *****  WEATHER ACROSS NORTHERN MINNESOTA  *****

CITY           SKY/WX    TMP DP  RH WIND       PRES   REMARKS
FLAG ISLAND    CLOUDY    59  57  94 N14       29.71F
WARROAD        CLOUDY    59  55  88 N9G18     29.74R
ROSEAU         CLOUDY    55  52  88 N14       29.74R
HALLOCK          N/A     54  52  94 N14G21    29.80R
THF RVR FALLS  CLOUDY    55  53  93 NW12      29.79R
6HR MIN TEMP:  55; 6HR MAX TEMP:  69; 6HR PCP:  0.04;

HALSTAD        NOT AVBL
FOSSTON        CLOUDY    57  54  88 W12       29.81R
BAUDETTE       MOCLDY    66  66 100 W6        29.70R
6HR MIN TEMP:  66; 6HR MAX TEMP:  71; 6HR PCP:  1.13;

WASKISH        CLOUDY    72  68  88 CALM      29.71R
CROOKSTON      CLOUDY    55  52  88 N15       29.80R
$$
  *****  WEATHER ACROSS CENTRAL AND WEST MINNESOTA  *****

CITY           SKY/WX    TMP DP  RH WIND       PRES   REMARKS
BEMIDJI        FAIR      75  64  68 SW10G22   29.75R
6HR MIN TEMP:  73; 6HR MAX TEMP:  79;

PARK RAPIDS    FAIR      74  63  68 SW15G22   29.78R
6HR MIN TEMP:  74; 6HR MAX TEMP:  82;

WADENA         FAIR      72  63  73 SW7       29.79S
DETROIT LAKES  CLOUDY    59  54  82 NW13      29.82F
MOORHEAD       CLOUDY    55  52  88 N12       29.84R
FERGUS FALLS   FAIR      63  57  82 NW8       29.82R THUNDER
ELBOW LAKE     FAIR      63  58  86 NW12      29.83R THUNDER
MORRIS MN      FAIR      68  63  83 NW24      29.85R
STAPLES        FAIR      73  59  60 S14G20    29.79F
WHEATON        TSTM      55  54  94 NW13      29.83F
$$
  *****  WEATHER ELSEWHERE ACROSS MINNESOTA  *****

CITY           SKY/WX    TMP DP  RH WIND       PRES   REMARKS
DULUTH         FAIR      71  66  84 S12       29.81S
6HR MIN TEMP:  66; 6HR MAX TEMP:  71;

INTRNTL FALLS  CLOUDY    69  64  84 CALM      29.72R THUNDER
6HR MIN TEMP:  68; 6HR MAX TEMP:  76; 6HR PCP:  0.01;

ELY            FAIR      73  64  73 S8        29.79R
CLOQUET        FAIR      79  64  61 S14G23    29.79R
BRAINERD       LGT RAIN  78  65  63 SW29G40   29.81R
6HR MIN TEMP:  78; 6HR MAX TEMP:  81; 6HR PCP: TRACE;

HIBBING        FAIR      74  67  78 CALM      29.76R
6HR MIN TEMP:  71; 6HR MAX TEMP:  75;

ALEXANDRIA     FAIR      68  63  84 CALM      29.80S
6HR MIN TEMP:  67; 6HR MAX TEMP:  85; 6HR PCP:  0.04;

SAINT CLOUD    FAIR      76  68  76 W3        29.84R
6HR MIN TEMP:  76; 6HR MAX TEMP:  84;

MINNEAPOLIS    MOCLDY    82  69  64 S8        29.86S
6HR MIN TEMP:  81; 6HR MAX TEMP:  89;

$$

  *****  WEATHER ACROSS SOUTH DAKOTA  *****

CITY           SKY/WX    TMP DP  RH WIND       PRES   REMARKS
SIOUX FALLS    FAIR      67  64  90 NE3       29.84R
6HR MIN TEMP:  67; 6HR MAX TEMP:  88;

BROOKINGS      FAIR      62  60  93 N5        29.85R
WATERTOWN      TSTM      60  60 100 NW8G29    29.81F FOG
6HR MIN TEMP:  60; 6HR MAX TEMP:  78; 6HR PCP:  0.33;

HURON          LGT RAIN  55  53  93 N10       29.86F
6HR MIN TEMP:  55; 6HR MAX TEMP:  75; 6HR PCP:  0.01;

SISSETON         N/A     57  55  93 N13       29.84R
ABERDEEN       CLOUDY    54  52  93 NW16      29.89R
6HR MIN TEMP:  54; 6HR MAX TEMP:  71;

MITCHELL       FAIR      59  55  87 NW12      29.89S
PIERRE         CLOUDY    51  46  83 NW15      29.93S
6HR MIN TEMP:  51; 6HR MAX TEMP:  60; 6HR PCP: TRACE;

MOBRIDGE       CLOUDY    51  46  83 N17G24    29.90F
RAPID CITY     NOT AVBL
$$

  *****  SOME WEATHER IN NEARBY STATES *****

CITY           SKY/WX    TMP DP  RH WIND       PRES   REMARKS
GLASGOW MT     CLOUDY    45  41  86 CALM      30.07F
6HR MIN TEMP:  45; 6HR MAX TEMP:  47;

GREAT FALLS MT CLOUDY    36  34  92 NW7       30.08F
6HR MIN TEMP:  35; 6HR MAX TEMP:  37; 6HR PCP: TRACE;

CHEYENNE WY    FAIR      45  36  70 N7        30.00F
6HR MIN TEMP:  45; 6HR MAX TEMP:  59;

SCOTTSBLUFF NE FAIR      50  38  63 NE8       29.97R
6HR MIN TEMP:  50; 6HR MAX TEMP:  69; 6HR PCP:  0.01;

OMAHA NE       FAIR      79  68  69 S23       29.86F
6HR MIN TEMP:  79; 6HR MAX TEMP:  89;

DES MOINES IA  FAIR      75  67  76 S8        29.94F
6HR MIN TEMP:  74; 6HR MAX TEMP:  86;

DAVENPORT IA   FAIR      71  64  78 SE8       30.02S
6HR MIN TEMP:  71; 6HR MAX TEMP:  82;

CHICAGO IL     FAIR      79  67  66 S3        30.04R
6HR MIN TEMP:  77; 6HR MAX TEMP:  87;

EAU CLAIRE WI  FAIR      74  66  76 S8        29.90S
6HR MIN TEMP:  74; 6HR MAX TEMP:  85;

LA CROSSE WI   FAIR      79  68  69 S12       29.93R
6HR MIN TEMP:  79; 6HR MAX TEMP:  89;

$$

  *****  SOME NATIONAL WEATHER *****

CITY           SKY/WX    TMP DP  RH WIND       PRES   REMARKS
LA GUARDIA NY  MOCLDY    72  58  61 N12       29.98S
6HR MIN TEMP:  72; 6HR MAX TEMP:  77;

RALEIGH NC     MOCLDY    69  65  86 E5        30.04R


USA.gov is the U.S. government's official web portal to all federal, state and local government web resources and services.